User: anonymous   Login
Location: *
(43.4667°N, 11.6833°E)
Time: 13:09:38
(UTC+00:00)
Language:

MOS 1 Rocket - Orbit

View from above orbital plane
View from above orbital plane
View from above satellite
View from above satellite

Ground track
Ground track

The orbit data is extracted from the following two-line orbital elements,

1 17528U 87018B   19259.65550758 -.00000017 +00000-0 +60378-5 0  9992
2 17528 097.4503 135.6606 0150303 244.7432 113.8124 14.50942223698373
Epoch (UTC): 16 September 2019 15:43:55
Eccentricity: 0.0150303
inclination: 97.4503°
perigee height: 616 km
apogee height: 829 km
right ascension of ascending node: 135.6606°
argument of perigee: 244.7432°
revolutions per day: 14.50942223
mean anomaly at epoch: 113.8124°
orbit number at epoch: 69837

The dashed part of the orbit path shows where the satellite is in the earth's shadow,  

DLR